Location: Taukkyan
(23.1052°N, 94.0030°E)
Time: 11:47:32
(UTC+00:00)

GPS 2-18 Rocket1 - Pass Details

Date: 06 July 2020
Orbit: 459 x 515 km, 20.9° (Epoch: 14 August)

Event Time Altitude Azimuth Distance (km) Brightness Sun altitude
Rises 13:40:17 0° 251° (WSW) 2,457 7.2 -14.2°
Reaches altitude 10° 13:42:31 10° 245° (WSW) 1,582 6.1 -14.7°
Maximum altitude 13:46:00 45° 171° (S) 622 3.3 -15.3°
Enters shadow 13:47:06 34° 124° (SE) 771 3.5 -15.5°
